Overview Statistics Trail Chart Weather Telemetry Raw packets
 

This is the latest recevied weather packets stored in our database for station/object WC4PEM-4. If no packets are shown the sender has not sent any weather packets the latest 10 day(s).

<< 19 20 21 22 23 24 25 >>
Time Temp. Humidity Pressure Rain* Wind** Luminosity Snow
1788463573 30.56° C 78% 1013.6 hPa 0 mm - - -
1788463273 31.11° C 78% 1013.6 hPa 0 mm - - -
1788462973 31.11° C 77% 1013.7 hPa 0 mm - - -
1788462817 31.11° C 77% 1013.7 hPa 0 mm - - -
1788462673 31.11° C 77% 1013.7 hPa 0 mm - - -
1788462373 30.56° C 79% 1013.7 hPa 0 mm - - -
1788462206 30.56° C 79% 1013.8 hPa 0 mm - - -
1788462073 30.56° C 79% 1013.8 hPa 0 mm - - -
1788461773 30.56° C 81% 1013.8 hPa 0 mm - - -
1788461473 30.56° C 82% 1013.7 hPa 0 mm - - -
1788461173 30.56° C 81% 1013.7 hPa 0 mm - - -
1788460873 29.44° C 84% 1013.8 hPa 0 mm - - -
1788460694 29.44° C 85% 1013.8 hPa 0.25 mm - - -
1788460573 29.44° C 85% 1013.8 hPa 0.25 mm - - -
1788460273 28.89° C 88% 1013.7 hPa 0.25 mm - - -
1788459973 28.89° C 88% 1013.9 hPa 0.25 mm - - -
1788459847 28.33° C 89% 1013.9 hPa 0.25 mm - - -
1788459673 28.33° C 89% 1013.9 hPa 0.25 mm - - -
1788459390 28.33° C 88% 1013.8 hPa 0.25 mm - - -
1788459073 28.33° C 88% 1013.9 hPa 0.25 mm - - -
1788458773 28.33° C 89% 1013.8 hPa 0.25 mm - - -
1788458473 28.33° C 91% 1014 hPa 0.25 mm - - -
1788458364 27.78° C 92% 1014.1 hPa 0.25 mm - - -
1788458173 27.78° C 92% 1014.1 hPa 0.25 mm - - -
1788457873 27.78° C 93% 1014.4 hPa 0.25 mm - - -

* Rain latest hour (hover to see other rain measurements)
** Current wind speed in m/s (hover to see current wind gust speed)